Theta_e
330 330 334 345 346 346 346 346 345 346 345 344 344 344 347 345 346 346 346 345 345 343 342 343 343 342 342 342 342 341 342 343 343 345 346 347 347 345 344 343 344 344 345 346 345 345 345 344 343 342 342 341 341 342 342 342 342 340 340 339 338 339 339 341 340 340 340 340 338 338 338 338 339 341 341 341 338 335 334 334 334 329 328 331 335
331 331 336 343 347 346 347 346 346 345 343 342 343 343 342 343 343 344 345 344 344 345 344 342 342 343 342 343 342 341 341 342 347 347 347 347 345 344 343 343 343 343 344 345 344 344 344 343 342 342 341 341 341 340 341 341 340 339 338 338 338 338 339 339 339 338 339 339 341 338 337 337 338 337 339 339 338 337 336 334 334 329 331 334 335
332 335 341 344 346 347 346 346 346 345 343 343 343 342 341 341 342 342 343 345 345 343 342 342 343 344 344 344 343 344 343 343 345 347 347 347 346 344 343 343 343 343 344 344 343 343 342 342 341 341 341 342 341 339 339 339 338 338 338 337 338 338 338 338 337 337 337 337 338 337 337 339 338 338 337 337 337 339 336 336 336 335 334 336 335
336 340 343 344 344 347 347 345 345 344 343 342 341 340 339 339 339 339 341 344 344 343 344 344 344 343 343 344 344 346 346 346 347 347 346 345 344 343 342 340 340 342 343 343 343 342 342 341 341 340 340 341 341 341 339 338 338 338 337 337 337 337 337 337 336 336 336 336 335 332 330 327 333 337 338 336 336 336 336 336 336 337 337 337 337
339 342 343 343 343 345 346 344 343 342 342 341 340 339 339 340 340 340 341 345 345 345 345 343 341 343 342 343 343 344 344 345 346 347 345 345 344 344 343 342 340 339 340 342 342 341 341 341 340 341 341 341 341 340 339 338 337 337 336 336 336 336 336 336 336 335 335 334 333 329 323 325 327 335 336 336 336 335 335 334 335 336 336 336 335
341 342 342 343 341 343 345 344 342 341 341 340 339 340 340 339 338 340 341 344 345 345 343 342 342 342 342 343 345 346 346 347 347 346 345 345 344 343 342 342 342 339 339 340 341 341 341 340 339 340 341 341 340 339 338 337 336 336 335 335 335 336 336 336 335 334 332 331 329 323 322 325 327 330 336 336 336 335 335 334 335 335 335 334 336
341 342 342 342 342 342 344 343 342 341 340 340 340 339 338 337 338 340 341 344 343 342 341 342 342 342 342 346 346 345 346 346 346 346 345 344 343 343 343 342 342 342 339 339 340 341 340 340 339 340 341 340 340 339 338 337 336 335 335 335 335 335 335 335 335 333 332 325 321 320 321 324 326 327 336 336 335 335 334 335 334 335 336 335 335
341 341 342 341 340 342 343 344 342 341 340 339 339 339 339 339 338 339 339 340 341 341 341 343 343 342 341 342 344 346 346 345 346 344 345 343 342 341 340 341 341 340 340 340 341 341 340 340 339 340 340 340 339 338 337 336 336 335 334 334 334 334 334 334 333 332 331 321 321 322 323 324 325 327 335 336 336 336 335 335 334 334 334 334 334
340 341 340 338 338 342 343 343 342 341 339 337 338 339 339 339 340 340 339 340 340 340 341 341 341 341 340 342 346 346 346 345 345 344 342 341 341 340 340 340 340 340 339 339 340 341 340 340 339 339 339 339 338 336 336 335 335 334 333 334 334 334 335 334 332 329 325 322 321 321 325 323 326 326 333 335 335 335 334 334 335 332 332 335 333
340 339 337 335 336 340 342 343 342 341 340 338 338 338 338 337 340 340 340 339 338 341 340 341 341 341 342 345 345 345 345 344 344 343 342 341 339 338 339 339 340 338 338 339 340 339 340 340 339 339 339 339 337 335 333 334 333 333 333 334 334 334 334 332 330 327 322 321 322 322 327 335 324 330 333 334 334 335 335 334 336 336 334 334 333
339 337 335 335 335 340 342 344 343 343 341 339 339 339 338 338 339 340 340 338 337 339 342 342 342 344 344 345 345 345 346 344 342 342 341 340 339 340 340 340 340 339 339 339 339 338 339 339 338 338 338 338 338 336 334 334 334 333 334 334 335 334 334 331 326 320 321 322 324 324 329 334 321 325 333 334 334 334 336 336 336 334 333 333 332
338 337 334 333 342 339 342 343 343 341 340 339 338 338 337 337 339 339 337 337 337 339 339 341 344 346 345 345 346 345 344 344 343 342 342 342 341 340 339 340 339 338 338 337 337 338 337 338 338 338 338 337 337 336 335 335 334 334 335 335 334 333 332 329 322 320 320 322 324 326 326 328 327 329 333 334 334 334 333 333 333 333 333 333 333
337 336 333 333 334 339 341 343 342 342 341 339 339 338 338 337 336 335 338 338 337 338 339 340 342 346 345 344 344 345 344 344 343 342 341 340 340 340 340 338 337 337 337 337 337 337 337 338 338 337 337 336 336 337 336 336 335 334 334 334 334 332 331 327 318 320 320 321 324 324 326 329 331 334 333 333 334 334 333 332 333 334 334 334 334
335 335 334 333 333 342 338 339 340 342 343 342 340 339 337 336 337 337 338 338 337 337 338 340 340 343 344 344 344 344 344 343 342 341 340 340 339 339 340 339 337 337 336 336 336 336 337 337 337 337 337 336 336 335 336 336 336 335 334 334 333 331 327 325 324 317 321 321 324 324 325 330 331 337 334 333 333 333 334 335 336 335 334 335 334
334 334 334 334 335 336 340 337 339 340 342 342 342 340 336 336 338 338 339 339 338 339 339 340 341 341 343 343 344 343 343 342 341 340 340 339 339 339 339 337 337 337 338 337 336 335 336 336 336 336 336 336 335 335 334 334 334 334 333 332 330 328 324 316 317 314 318 321 321 323 323 325 336 337 337 334 336 337 336 335 335 335 334 334 335
333 333 335 335 334 334 334 339 336 336 338 339 339 340 340 338 341 340 341 340 340 340 340 341 341 341 342 342 343 343 342 341 341 340 341 339 339 339 338 336 336 337 336 335 335 335 335 335 336 335 335 335 335 334 334 334 334 334 333 331 329 326 324 319 313 313 314 318 318 320 320 323 336 337 336 336 336 335 336 335 336 336 335 335 334
331 331 333 333 333 334 333 333 333 334 333 334 336 337 339 341 342 342 342 342 342 341 341 340 341 341 342 342 342 342 341 341 340 340 340 340 339 338 338 336 336 335 335 335 336 335 335 335 335 335 334 334 334 334 334 333 333 331 330 329 328 326 322 320 315 312 315 319 318 318 319 322 334 336 336 336 336 336 336 335 336 336 335 335 334
329 331 331 330 330 332 333 330 329 330 329 331 332 335 337 341 341 341 342 342 341 341 341 342 342 342 342 342 341 342 341 341 341 341 340 339 338 337 338 336 335 334 335 336 334 334 334 334 334 334 334 334 334 334 333 333 331 328 328 327 327 325 323 320 312 312 314 321 315 318 318 330 335 335 336 336 336 335 335 336 335 335 335 334 335
330 331 331 330 330 330 331 329 328 328 328 328 326 329 333 337 338 339 339 340 340 339 340 339 339 340 340 339 339 338 337 337 338 338 338 336 335 333 336 337 336 335 335 335 334 334 334 333 333 334 334 334 333 333 333 332 329 327 327 325 323 321 320 316 312 312 312 311 311 313 316 333 333 334 335 335 335 336 335 335 335 334 335 335 335
331 330 330 330 330 330 330 329 326 328 328 326 326 326 330 332 335 336 337 337 337 337 335 334 333 334 334 333 332 331 330 330 330 331 332 336 334 329 333 336 335 335 335 334 334 333 333 333 333 333 333 331 331 331 331 332 328 327 325 324 321 318 311 311 312 313 310 312 318 311 323 335 334 334 335 335 335 335 334 334 335 334 334 334 334
330 330 331 331 330 330 330 328 326 327 327 328 326 326 328 330 332 332 332 334 334 334 332 327 325 325 326 325 327 326 325 326 326 326 327 324 325 327 331 335 335 335 334 334 333 333 332 332 333 332 334 329 323 324 324 328 328 327 323 321 317 311 312 311 312 315 313 312 315 311 327 334 333 334 334 335 334 336 335 334 335 334 334 334 334
328 329 331 331 330 330 330 329 326 326 327 327 327 326 326 329 328 328 330 331 329 328 326 325 328 322 322 324 323 324 322 321 323 329 322 324 324 325 329 333 335 334 335 334 333 333 332 332 331 333 332 326 319 311 312 317 321 323 320 316 310 311 309 312 315 315 315 313 315 317 330 333 333 334 334 335 335 335 333 333 335 334 334 333 334
327 328 329 330 330 330 330 329 328 324 326 326 327 326 325 325 326 327 327 327 328 327 324 324 321 321 321 321 320 320 320 321 321 323 323 320 324 325 328 331 332 331 333 333 332 332 332 333 333 331 328 322 313 310 310 310 310 317 315 310 310 310 310 312 313 312 312 315 316 323 331 332 332 333 334 334 334 334 333 332 333 333 334 334 333
327 328 329 331 331 330 330 330 328 323 326 326 326 326 324 323 324 325 326 324 323 323 322 321 320 321 320 319 319 317 318 319 327 326 325 324 324 322 323 327 328 328 330 327 326 326 327 327 326 325 317 314 312 312 311 310 311 310 310 309 312 311 310 311 312 313 315 318 317 324 329 331 332 333 333 334 334 333 332 334 333 333 333 332 333
327 328 329 329 331 330 330 330 329 324 325 328 329 329 326 323 323 323 324 323 322 320 320 320 320 319 319 319 318 316 317 318 322 323 322 323 323 324 324 325 324 324 324 324 322 321 319 317 315 314 311 312 311 309 309 312 309 310 310 309 310 309 307 309 313 316 316 318 317 323 326 329 331 333 333 334 334 333 332 334 333 333 332 332 332
324 325 326 329 330 331 330 330 331 327 324 326 329 331 329 325 321 322 323 322 322 321 319 320 319 319 318 318 318 318 317 320 321 322 322 322 322 322 323 324 325 325 324 323 322 320 318 316 314 313 313 311 311 311 309 309 311 309 309 308 308 309 311 313 315 317 317 316 313 320 325 329 331 332 333 333 333 332 332 334 333 332 331 331 332
322 323 326 327 330 331 331 331 329 329 324 323 328 330 329 327 323 323 324 323 321 320 320 319 319 318 318 317 319 317 317 317 319 320 321 321 322 321 322 322 323 323 323 323 321 319 315 316 316 314 312 310 310 308 308 309 307 308 309 309 309 310 313 315 317 318 317 315 313 318 324 329 330 330 332 331 332 333 332 331 333 332 331 329 331
318 320 322 324 326 329 330 330 330 330 328 324 325 328 330 329 324 322 324 324 322 321 320 321 320 319 318 318 318 319 319 318 318 318 319 319 321 320 321 321 322 322 323 322 321 319 316 315 315 313 312 309 309 311 310 309 309 308 309 310 310 310 310 311 312 313 314 314 310 312 318 326 327 330 332 331 332 331 330 329 329 333 331 329 330
318 318 319 321 323 328 329 329 329 330 330 326 323 326 329 329 327 323 323 322 322 322 322 321 320 319 318 318 318 318 317 318 317 317 315 317 319 319 319 320 320 320 321 321 320 319 318 316 316 314 309 310 309 313 310 310 309 309 310 311 311 311 311 310 309 307 308 309 308 308 315 322 326 328 330 330 329 328 328 328 328 328 330 327 331
319 320 319 320 321 325 327 328 329 330 331 329 326 323 326 328 328 326 324 321 322 322 321 321 321 320 319 318 318 319 319 319 318 315 316 317 316 315 317 318 319 319 320 320 320 318 318 315 314 312 312 311 311 313 309 311 312 309 310 310 312 315 317 315 311 309 309 309 308 306 312 319 323 328 327 327 326 326 326 326 327 326 326 326 331
320 319 319 320 321 322 325 326 327 328 331 330 328 325 324 326 327 327 325 322 321 322 321 322 321 321 321 320 319 319 319 319 319 318 317 317 315 314 315 315 316 316 318 320 319 319 317 315 314 313 312 310 312 310 309 311 311 311 310 310 313 312 316 315 310 308 310 312 310 309 311 315 319 324 325 324 325 325 325 325 327 326 325 327 331
320 319 320 320 320 321 323 325 325 325 328 330 329 327 324 323 324 325 324 323 321 322 322 321 320 321 321 320 320 320 318 319 319 318 318 317 316 315 315 314 316 315 316 317 316 314 314 313 311 311 310 309 311 310 309 309 311 312 309 310 310 312 312 312 309 308 309 311 310 310 311 309 314 320 321 324 324 324 323 325 328 330 326 330 331
322 321 320 319 320 321 323 324 325 324 326 328 329 329 328 325 323 323 323 323 322 322 322 322 321 321 321 320 320 320 319 319 319 319 317 318 317 316 316 315 316 316 315 315 315 312 310 310 312 310 309 308 308 312 309 308 308 313 309 311 309 311 311 311 308 307 309 313 314 313 314 314 313 316 316 318 322 323 325 327 328 329 330 330 329
322 321 319 319 321 322 323 324 325 324 324 327 328 329 329 327 324 323 322 322 322 322 321 321 321 321 321 321 321 320 319 320 320 318 318 318 318 317 317 317 316 315 314 313 314 313 313 311 313 311 313 310 311 312 310 311 310 308 310 310 308 312 310 310 310 311 314 315 314 315 316 314 312 313 313 314 316 319 322 325 326 327 329 329 326
321 320 320 320 320 321 323 323 323 324 323 324 325 327 328 328 326 324 323 323 322 322 322 322 322 322 321 321 321 321 320 320 320 320 318 318 318 318 317 318 317 314 314 314 315 313 313 314 313 312 311 309 308 311 310 311 310 312 313 308 311 309 307 311 309 311 314 315 314 315 316 314 312 313 313 311 309 310 318 324 326 327 328 329 324
322 321 321 320 319 320 321 322 322 323 323 323 325 326 327 328 327 324 324 322 322 322 322 322 322 322 321 321 321 321 320 321 320 319 319 318 318 318 318 318 317 315 315 313 312 314 312 312 312 311 311 312 309 312 310 310 310 311 310 309 309 307 308 306 308 310 312 313 314 314 314 313 312 312 311 310 308 305 313 318 324 325 326 325 323
323 322 321 320 320 320 320 321 321 322 323 323 324 325 326 326 326 325 324 323 323 322 322 322 321 321 320 321 321 320 320 321 321 320 320 319 318 318 318 318 316 316 315 314 313 314 313 314 312 310 312 314 311 311 311 308 311 311 310 309 310 309 309 310 310 310 311 312 312 313 313 312 311 309 312 311 307 305 309 314 318 320 318 325 322
323 323 322 321 321 320 320 320 322 322 323 323 323 325 325 325 325 324 322 323 323 323 323 322 321 321 320 320 320 320 320 320 321 320 320 320 319 318 318 318 317 316 315 314 315 314 312 313 314 312 312 312 313 312 313 311 309 310 310 310 311 307 310 309 308 306 311 312 312 312 313 313 310 310 310 309 306 304 302 307 313 313 313 319 324
324 323 323 322 322 321 320 319 320 321 321 322 322 323 324 324 323 323 322 323 323 323 323 322 322 321 320 320 320 320 319 320 321 320 320 320 319 318 318 316 317 316 316 315 313 312 312 311 313 314 310 313 315 313 314 310 309 307 309 311 310 310 310 308 307 308 310 313 313 312 311 311 309 307 307 304 302 300 299 298 299 300 304 314 320
323 323 322 322 321 321 320 319 319 321 321 321 321 321 321 321 321 320 321 321 323 321 321 322 322 321 321 320 320 320 320 319 320 321 320 319 319 318 318 317 316 316 316 315 314 314 314 312 312 313 313 310 309 311 308 307 306 305 309 310 308 308 309 308 306 308 309 310 312 311 311 309 307 305 306 306 301 298 297 297 298 299 301 309 313
322 323 322 322 322 321 320 319 319 320 320 320 319 319 319 319 319 320 321 322 321 321 320 320 321 321 321 320 320 320 320 319 319 320 320 318 319 319 318 316 316 316 316 317 317 316 316 315 314 312 313 313 311 309 308 307 309 311 306 307 309 309 309 305 309 308 308 310 310 311 308 306 304 304 306 305 301 297 296 296 297 297 299 299 303
321 322 322 322 322 322 321 320 319 319 320 321 320 319 320 320 319 319 320 321 320 318 319 320 320 320 320 320 320 320 320 320 318 319 319 319 319 318 318 318 317 316 317 317 316 314 315 314 312 312 309 313 313 310 309 312 308 312 309 307 303 307 306 304 307 307 307 308 308 309 308 308 307 305 304 304 301 298 298 297 296 296 295 296 296
322 322 323 322 322 322 322 321 321 319 320 321 321 320 321 320 320 319 320 318 318 320 320 320 319 319 320 320 319 320 320 320 319 318 319 319 319 319 318 318 318 317 316 316 315 315 315 315 314 315 313 306 310 307 310 314 311 303 305 308 309 306 305 303 302 305 306 306 306 307 307 308 308 305 304 304 303 299 297 295 295 295 294 294 294
320 321 322 322 323 322 322 322 321 320 320 320 319 322 321 320 320 318 317 319 317 314 317 316 317 318 319 319 320 320 319 320 319 319 319 320 319 319 319 318 319 318 318 317 316 316 315 315 314 314 315 314 308 309 309 311 312 308 309 310 306 304 306 304 300 301 302 306 306 306 306 307 306 304 302 303 304 302 298 296 294 294 293 294 294
320 321 322 322 323 322 322 323 322 321 320 319 319 320 318 315 315 314 313 313 312 312 312 316 317 317 318 318 319 319 319 319 319 319 318 319 320 320 320 320 319 318 318 318 318 318 317 316 316 314 314 316 316 309 305 310 312 314 313 305 304 302 304 301 296 305 302 305 305 306 306 307 305 304 302 302 303 302 299 296 293 291 291 291 292
318 320 322 323 323 323 323 323 323 322 321 320 320 320 319 319 316 316 315 315 315 315 315 316 316 316 317 318 317 319 319 319 319 319 319 318 319 320 320 320 319 319 318 319 319 317 316 316 316 317 315 315 317 314 311 305 311 311 314 316 314 309 302 299 305 304 299 301 302 306 306 306 306 305 303 302 301 301 299 297 293 290 290 290 290
316 320 321 322 322 323 323 323 323 323 322 321 319 318 319 319 318 318 318 317 316 317 318 315 317 318 317 317 318 317 319 319 319 319 319 318 319 319 320 320 320 320 318 318 318 318 318 318 317 316 317 315 314 315 316 315 306 310 311 313 311 309 307 307 308 303 304 304 305 305 306 306 305 305 304 303 301 300 299 298 295 291 289 289 289
313 317 320 321 321 322 323 323 323 322 323 322 319 319 319 319 318 318 318 318 318 318 318 318 316 315 317 317 317 317 317 319 319 319 319 319 318 319 319 319 319 320 318 318 318 318 317 316 316 317 317 316 316 316 316 315 313 313 311 312 311 312 311 308 309 311 310 306 304 304 303 305 304 305 305 304 302 300 299 297 296 293 290 289 289
311 315 318 320 322 322 322 323 323 322 322 321 319 319 319 320 319 319 318 318 319 319 314 314 316 315 316 316 317 317 317 317 319 319 319 320 317 318 318 318 319 319 317 318 318 317 316 315 314 314 315 316 316 317 317 317 315 315 310 311 313 313 313 312 311 308 307 307 309 306 303 299 301 303 302 303 304 302 300 299 297 296 292 290 288
310 314 317 319 321 321 321 321 322 323 323 322 320 319 319 318 319 319 318 319 318 317 314 315 315 315 316 316 316 316 317 316 317 318 319 319 319 317 318 318 318 319 316 317 317 316 316 315 316 315 316 317 318 317 317 318 318 317 316 315 312 312 312 312 310 309 307 308 307 304 305 300 300 304 303 302 302 302 301 299 297 296 294 291 289
306 311 314 317 319 320 320 320 321 322 322 322 320 319 319 319 319 319 319 318 318 317 315 316 315 313 315 315 315 316 316 317 317 317 318 319 319 318 318 319 319 318 316 317 317 317 317 317 318 318 318 318 318 319 317 318 318 318 318 317 316 315 314 312 311 310 309 304 303 305 305 304 305 306 303 303 302 302 301 299 299 298 296 293 290
Wind_Speed
5 4 3 8 11 11 12 11 11 11 10 9 9 10 11 9 10 9 10 10 11 11 9 9 10 10 10 10 10 10 11 12 12 13 14 14 15 15 15 15 16 16 16 16 17 17 17 17 17 16 16 17 18 17 18 18 19 19 19 19 18 17 16 17 18 18 19 17 18 18 17 17 18 19 19 18 18 16 14 15 10 7 6 12 19
6 3 3 5 12 12 13 12 12 11 10 10 9 8 9 9 7 9 9 8 10 11 11 10 9 10 10 10 11 11 12 13 14 14 14 15 15 14 15 15 16 16 16 16 16 16 16 16 16 15 16 17 17 17 17 18 18 18 19 18 18 17 16 17 18 18 18 18 17 16 18 18 17 17 18 19 19 18 13 12 10 5 6 15 18
4 3 3 5 9 10 13 13 13 12 11 11 10 10 10 8 7 7 9 11 10 11 10 9 9 9 10 11 11 12 11 12 14 14 14 15 16 15 15 15 15 16 16 16 16 16 16 16 15 15 16 17 17 17 17 17 17 17 17 18 17 17 16 17 17 17 17 17 16 14 16 19 18 18 18 17 18 19 16 17 16 14 10 17 16
6 4 3 6 7 8 11 13 13 12 12 11 10 10 10 9 8 7 9 11 10 11 11 10 10 9 10 10 11 12 12 13 14 14 15 15 15 15 15 15 15 15 16 16 16 16 16 16 15 16 16 16 17 16 16 16 16 16 16 17 17 16 17 17 16 16 16 15 14 11 6 5 11 18 17 17 17 18 14 16 18 19 18 16 19
6 5 5 6 5 6 11 12 13 12 12 12 11 11 10 10 10 9 10 11 10 11 11 11 10 10 9 9 10 11 12 12 13 14 15 15 15 14 15 14 15 15 15 15 15 15 15 16 16 15 15 15 16 16 15 15 15 15 15 16 16 17 16 16 15 15 14 13 12 8 5 6 4 16 16 16 16 14 13 15 16 17 16 16 18
7 5 5 5 3 4 10 11 12 12 12 12 12 10 9 8 9 10 10 11 10 12 11 11 11 10 10 10 10 10 11 13 13 14 15 15 15 14 14 14 14 14 14 15 15 15 15 15 15 15 15 15 14 15 15 15 14 14 15 15 16 16 15 14 14 13 12 11 9 5 6 6 5 7 17 16 16 14 16 16 16 16 17 17 18
8 5 5 4 3 6 9 11 11 12 12 12 12 11 10 8 8 9 11 11 10 10 10 10 10 9 9 11 11 10 11 12 13 14 15 15 15 14 14 14 13 13 13 13 14 14 14 14 15 15 15 14 14 14 14 14 14 14 14 15 15 14 14 13 13 12 11 7 5 4 5 5 5 4 16 15 15 16 16 15 15 16 16 15 16
5 4 4 4 4 8 10 11 11 11 11 11 11 10 10 11 8 7 8 9 9 9 10 10 9 9 8 11 11 11 11 12 13 14 15 15 14 13 13 13 13 13 13 13 13 13 14 14 14 14 14 14 14 13 13 13 14 14 14 14 14 13 13 12 11 11 10 6 5 5 5 4 4 3 13 14 15 16 15 15 14 15 15 14 9
6 4 4 4 4 10 9 10 12 11 11 10 9 10 9 10 10 9 8 7 7 9 9 9 9 8 8 9 11 11 13 13 13 14 15 14 13 13 12 12 12 12 12 12 12 13 13 14 14 14 14 14 13 13 12 12 13 13 14 14 13 12 11 11 10 10 6 4 4 4 4 3 4 3 11 13 13 13 11 7 9 12 11 9 12
5 4 4 4 4 9 8 9 11 11 11 10 9 9 8 7 9 9 8 6 7 9 9 9 9 9 8 9 10 11 12 13 13 15 14 14 13 12 12 12 12 12 12 11 12 12 12 12 12 13 12 13 13 12 13 13 13 13 13 13 12 11 10 10 9 6 4 4 4 4 4 5 2 4 8 12 12 10 5 6 7 5 5 10 11
5 4 4 5 4 7 8 8 8 8 10 10 9 9 8 8 7 9 9 8 7 8 9 8 8 7 7 9 10 11 12 13 13 13 12 12 12 12 13 12 12 11 11 11 11 11 11 11 12 12 12 12 12 12 12 13 13 12 12 12 11 10 9 8 7 4 4 5 5 5 5 7 2 0 9 10 11 10 6 6 5 8 9 8 8
5 4 3 4 7 8 8 8 8 9 9 8 8 8 7 7 8 8 7 7 6 8 9 8 10 10 9 9 11 12 12 12 12 12 13 13 12 12 11 12 11 11 10 10 10 10 11 11 11 12 12 12 12 12 11 11 11 11 10 10 10 9 8 8 5 5 4 5 5 5 6 6 5 4 10 10 10 10 8 8 8 9 8 9 9
4 4 2 3 4 6 6 6 7 7 8 8 8 8 8 8 7 5 8 7 7 7 7 8 9 12 10 10 10 12 11 11 12 12 13 12 12 11 11 11 10 10 10 10 9 10 10 10 11 11 12 12 12 12 11 11 10 10 9 8 8 8 7 7 4 4 4 4 4 5 6 6 7 7 8 8 8 8 7 7 7 9 10 9 9
5 4 3 2 2 4 5 6 7 7 7 7 8 8 7 7 9 8 7 7 5 4 6 8 6 10 10 11 10 11 11 12 12 12 11 11 11 10 10 11 10 9 9 9 9 9 9 10 10 11 11 12 12 12 11 10 9 8 8 7 7 6 6 5 5 4 4 4 4 5 5 6 5 11 8 7 6 6 7 10 10 9 8 7 8
6 4 4 3 3 3 4 5 5 5 3 6 7 8 8 7 9 9 8 8 8 7 6 7 6 8 8 9 10 11 11 11 11 11 11 10 10 10 10 10 9 9 9 9 8 8 8 9 10 10 10 11 12 11 11 10 8 8 7 6 6 6 5 3 3 3 4 4 4 4 5 4 8 8 10 8 9 9 8 8 7 7 7 8 8
6 5 5 5 4 3 2 4 4 4 4 6 7 6 6 5 6 7 8 6 8 6 5 7 6 7 8 8 10 11 11 11 11 10 8 9 10 10 9 9 8 8 8 8 8 8 8 8 9 9 9 10 11 11 11 10 9 7 6 5 5 5 5 4 3 3 3 4 3 3 4 3 10 9 7 7 8 8 7 8 8 9 9 8 8
8 5 5 5 5 4 3 3 4 5 5 6 6 5 4 4 5 8 7 8 6 7 7 8 7 7 9 9 9 9 10 10 10 9 8 10 9 8 8 8 8 7 7 7 7 7 8 8 8 8 8 8 9 10 10 10 9 7 6 5 5 4 4 4 4 3 3 2 3 3 4 3 6 8 7 7 7 7 9 8 9 9 9 8 8
7 8 7 5 5 4 5 4 4 4 3 5 5 4 4 3 6 7 4 6 6 6 7 5 6 5 5 4 7 8 9 9 8 8 8 9 8 7 7 7 7 6 6 6 6 7 7 7 7 7 7 7 8 9 10 8 8 8 6 5 4 4 3 3 3 2 2 2 2 2 3 6 9 4 7 7 7 7 8 9 9 9 8 8 8
9 9 8 7 6 5 5 4 4 4 4 4 3 2 3 5 7 7 6 6 6 6 6 9 9 7 6 7 8 8 8 8 8 7 8 7 7 7 6 6 7 6 6 5 5 6 6 6 6 6 6 6 7 7 8 8 7 7 6 5 4 4 4 2 2 1 2 2 3 3 3 8 10 8 7 7 7 8 8 9 8 8 7 7 6
6 8 9 8 7 7 6 4 4 5 5 4 4 3 4 7 8 8 7 6 7 8 8 8 9 8 8 8 8 7 6 6 9 6 7 6 6 5 6 5 6 6 5 4 4 4 5 5 5 5 5 5 5 5 5 7 6 6 5 5 4 3 1 1 1 1 1 2 2 2 5 8 10 11 10 9 8 8 9 9 8 7 6 6 6
4 5 7 7 8 8 7 5 4 5 5 5 4 4 3 7 7 8 8 8 8 9 9 8 7 7 7 7 7 5 4 4 5 4 6 4 6 6 6 5 5 5 4 3 3 3 3 3 3 3 5 5 4 4 3 4 5 4 3 4 3 2 0 0 0 0 1 2 2 4 6 7 10 11 10 9 8 8 8 8 8 6 5 5 6
6 6 6 5 6 6 7 7 5 5 6 5 4 3 3 4 4 4 5 6 7 7 7 5 5 4 6 5 4 4 4 3 4 5 3 3 4 6 5 5 5 4 3 3 1 1 2 1 1 3 4 5 5 2 3 4 4 5 2 3 2 1 1 0 1 2 2 3 3 4 7 8 9 11 10 9 7 7 7 7 7 5 5 5 5
10 7 6 7 5 6 6 7 6 5 5 4 4 4 4 3 4 4 4 5 5 5 4 4 4 4 4 4 3 3 3 3 4 4 3 4 2 2 5 6 6 5 2 1 1 1 2 3 5 5 4 4 2 2 2 3 4 3 4 2 1 0 0 0 1 2 2 2 2 4 6 8 8 10 10 9 7 6 6 7 5 5 5 4 5
9 9 7 6 7 6 8 6 7 6 5 4 4 4 4 3 4 4 4 4 3 4 4 4 4 4 4 4 3 3 3 3 4 6 5 3 2 4 4 3 4 5 3 3 5 5 6 4 5 5 3 2 1 1 2 2 3 3 2 2 0 0 0 1 0 1 2 3 4 4 4 7 8 10 9 8 7 5 6 6 3 4 3 4 5
5 5 5 8 8 8 6 8 6 6 6 5 5 5 4 3 4 4 4 4 4 3 4 4 4 4 4 4 4 3 3 3 3 3 2 2 2 2 1 1 1 2 3 1 1 2 2 2 2 2 2 1 2 2 2 4 3 3 3 2 1 0 1 1 2 3 2 3 5 6 4 6 8 9 9 8 6 6 6 6 5 4 3 4 5
4 7 9 8 10 8 7 6 7 6 5 6 6 5 5 4 3 4 4 3 4 4 4 4 4 4 4 4 4 4 4 3 3 3 2 3 3 1 2 1 1 2 1 1 1 2 2 1 2 2 2 1 2 2 2 2 4 3 3 3 2 2 1 1 1 2 2 2 1 4 3 5 7 8 8 8 6 6 6 5 4 3 2 3 5
8 8 7 6 8 8 9 8 9 6 6 4 5 5 5 5 5 4 5 4 4 4 4 4 4 4 4 4 5 4 4 4 4 3 4 3 3 3 3 3 3 2 2 2 2 2 1 1 2 2 2 2 3 2 2 2 1 2 3 2 2 2 3 1 2 2 2 2 2 3 3 4 6 8 7 8 6 5 4 5 3 2 1 2 4
5 6 7 7 8 11 9 9 8 9 6 5 6 6 6 6 5 5 5 6 6 5 5 5 5 5 4 5 4 5 6 5 4 4 4 3 4 4 4 3 4 4 3 3 3 2 2 1 2 3 3 3 3 4 3 3 2 1 3 3 2 2 2 4 2 3 3 3 1 2 3 4 5 7 8 7 6 6 6 5 4 4 1 2 4
7 8 7 8 9 9 9 10 9 10 8 7 7 6 6 6 6 6 6 6 5 5 6 5 5 4 4 5 4 5 4 5 5 5 4 5 5 4 4 4 4 4 4 4 3 3 3 2 3 3 3 3 3 4 3 3 2 1 1 3 3 3 3 2 4 2 2 2 1 1 3 4 5 6 5 6 6 6 6 6 6 5 3 1 5
11 9 8 8 7 8 9 10 10 9 8 8 7 6 7 7 7 7 6 5 6 6 5 5 5 5 5 5 5 5 6 6 5 5 5 6 5 4 4 4 5 4 4 5 5 4 5 3 3 4 5 4 3 4 2 4 5 3 1 2 3 4 4 2 2 3 2 1 1 1 3 4 5 4 3 4 6 6 7 7 6 5 3 4 6
9 9 8 8 7 8 9 9 9 9 8 9 8 7 6 7 7 6 6 6 5 5 5 5 5 5 5 6 6 5 5 5 6 6 5 5 5 4 5 5 4 5 5 6 4 6 4 5 5 5 3 3 4 3 2 4 4 4 2 2 4 3 5 1 0 1 1 2 2 1 1 3 3 4 3 4 5 7 7 6 6 6 4 5 7
11 11 9 7 7 10 10 9 9 9 9 9 8 8 8 7 7 6 6 6 6 6 6 5 6 5 5 6 6 6 5 6 6 6 6 5 5 5 5 5 6 5 5 5 5 5 5 4 3 3 2 1 3 4 1 2 4 5 3 3 3 4 5 1 1 2 3 2 2 2 2 2 0 3 4 4 6 7 7 6 9 11 4 5 8
9 9 9 8 10 10 10 10 9 9 10 11 9 9 7 7 7 7 7 6 6 6 6 6 6 6 6 6 7 7 6 7 6 7 6 6 6 6 6 6 6 5 5 5 5 3 3 3 4 1 2 1 3 5 2 1 4 5 3 4 2 4 3 1 2 3 3 3 4 4 3 2 2 2 2 4 5 7 8 8 8 9 3 8 8
8 6 7 10 9 7 8 8 9 10 11 10 9 8 9 8 7 6 6 7 6 7 7 6 6 6 6 7 7 7 7 7 7 7 6 6 6 7 7 6 6 5 4 4 5 4 4 3 4 1 3 1 4 5 4 6 4 4 4 4 2 4 2 3 3 4 3 4 4 4 5 4 4 4 1 3 5 6 7 8 8 8 6 9 6
7 7 10 10 9 9 8 8 9 11 10 10 11 10 9 8 8 7 7 8 7 7 7 7 7 7 7 7 8 7 8 8 7 7 7 7 7 7 7 7 5 4 4 4 5 3 3 4 2 2 2 2 3 5 4 6 5 6 6 3 5 3 2 4 3 3 4 3 3 4 4 4 5 4 3 1 2 4 5 5 6 6 11 11 7
11 10 9 9 10 9 9 10 10 12 11 12 11 10 10 9 8 8 7 8 7 8 8 8 8 7 7 7 7 8 8 8 8 7 7 7 7 7 6 5 5 4 4 4 3 4 3 3 3 3 3 5 4 6 4 5 4 6 4 4 5 4 4 3 4 5 4 4 4 4 4 4 3 4 4 2 1 2 4 4 4 6 3 7 7
11 10 10 9 10 10 11 12 12 13 12 11 11 9 8 9 9 9 9 9 9 9 8 7 7 7 7 7 7 8 8 8 8 8 7 7 7 6 5 5 4 5 4 4 4 4 3 4 4 4 5 6 5 5 5 4 5 5 4 4 5 4 5 5 4 4 4 4 4 4 4 4 4 4 4 5 4 1 2 3 3 4 5 5 6
10 11 11 12 13 11 11 12 10 11 11 11 11 10 9 9 8 8 8 9 10 8 8 7 8 8 8 8 8 8 8 8 8 8 8 7 6 6 5 5 5 5 5 4 5 4 4 5 5 4 6 5 5 6 6 5 4 4 4 5 6 4 6 5 4 3 4 5 5 5 6 4 4 4 3 5 6 4 1 1 3 3 5 4 4
9 11 11 11 9 9 9 10 11 10 10 10 10 10 9 8 7 8 8 9 8 8 8 8 9 8 8 9 9 8 8 9 9 8 8 7 6 5 5 4 5 5 5 4 4 4 4 4 5 6 4 6 6 5 6 4 4 4 5 6 5 5 6 4 3 4 5 5 6 6 4 5 5 3 3 2 1 3 3 1 0 0 0 3 4
9 9 11 10 11 9 9 9 11 11 9 9 8 9 8 8 9 6 8 9 8 8 8 9 8 9 9 9 9 9 8 9 9 8 8 7 6 6 6 5 5 5 5 5 6 5 6 5 6 6 6 4 4 4 4 4 3 3 6 6 5 6 7 5 4 4 4 5 5 4 5 4 5 3 3 3 2 2 3 3 2 2 1 2 4
9 10 10 12 12 13 11 13 11 10 10 10 9 10 10 8 8 11 12 9 9 9 9 9 9 9 9 9 9 9 9 9 8 7 8 7 6 6 6 5 5 5 6 8 8 7 7 7 6 5 6 7 5 4 4 2 2 5 4 5 6 5 7 4 5 5 4 5 3 5 4 5 5 5 4 3 3 3 3 4 3 3 1 1 2
12 11 13 15 14 14 13 13 9 11 12 12 10 10 10 11 10 10 9 8 8 9 10 8 9 8 8 8 8 8 9 8 8 7 7 7 7 6 6 6 6 6 7 6 6 6 6 6 4 4 4 7 5 4 4 4 3 6 5 5 4 4 4 3 5 5 4 5 5 5 5 6 7 6 4 4 5 5 6 5 5 4 3 2 2
12 14 14 12 12 12 13 11 11 11 11 11 10 12 11 9 9 6 9 7 6 8 8 8 7 8 8 8 8 8 8 8 7 7 7 7 7 6 7 6 7 7 6 7 6 7 7 7 7 7 5 3 5 2 5 8 6 2 1 2 5 3 3 1 2 4 5 4 4 5 6 5 5 4 5 4 5 5 4 4 4 4 4 4 5
12 11 11 13 11 12 11 12 12 11 10 12 12 11 9 7 6 5 5 7 6 4 6 5 6 6 8 8 9 8 7 7 6 6 7 7 7 8 7 7 8 7 8 8 7 9 7 6 6 7 6 7 3 5 5 6 6 3 5 5 2 0 8 4 4 5 2 4 6 6 5 6 6 5 4 6 7 6 5 4 5 5 5 6 6
13 13 13 13 11 15 15 14 13 12 11 11 12 9 6 5 4 2 1 2 2 2 4 8 8 6 7 8 9 6 7 7 6 7 8 9 8 8 8 8 8 8 8 8 9 9 8 7 8 7 8 8 8 4 3 6 8 8 6 1 3 2 5 4 0 5 0 2 4 5 6 7 7 8 7 8 6 6 7 7 7 6 7 8 7
13 14 13 14 14 13 13 13 11 10 11 12 12 10 10 10 8 8 9 8 9 8 12 12 8 9 11 7 6 8 8 8 8 8 9 8 9 9 9 9 9 8 8 9 8 6 7 8 9 9 8 8 9 6 5 4 8 9 10 9 7 7 3 2 1 7 1 1 1 2 4 6 7 8 8 8 9 9 7 8 6 8 8 7 7
15 12 12 13 13 12 12 14 13 12 12 11 12 11 10 10 13 14 13 12 12 11 9 5 8 8 6 8 8 7 9 10 9 9 8 9 9 9 9 9 9 8 8 8 9 9 9 9 7 8 9 7 7 9 10 7 2 6 7 9 9 7 4 3 8 1 6 1 1 3 4 5 4 5 8 11 11 9 8 8 8 9 8 7 7
13 9 11 11 14 15 14 14 12 12 11 11 12 13 13 12 12 13 11 11 13 14 8 8 6 5 7 9 7 7 8 9 9 9 9 9 9 9 9 9 9 9 8 9 10 8 7 6 7 9 8 8 9 10 9 7 8 7 8 10 10 10 7 6 6 10 10 9 2 1 1 5 6 10 11 10 11 11 10 9 9 8 7 7 6
9 11 13 14 14 14 14 13 13 12 11 13 13 14 14 14 13 12 11 12 12 10 5 6 7 7 8 7 8 8 8 8 9 9 9 9 9 9 8 9 9 9 8 9 8 8 9 8 7 8 8 9 9 10 9 10 9 10 4 6 8 9 8 9 8 5 7 6 9 6 5 1 3 8 8 9 9 8 9 9 9 9 7 7 7
11 12 11 10 11 11 12 13 14 12 12 13 14 15 15 12 12 13 15 14 10 7 6 8 7 7 9 8 7 7 7 7 7 8 9 9 8 8 9 10 10 10 8 9 8 8 8 8 9 10 10 10 9 10 11 9 8 8 9 7 7 6 6 6 5 7 7 8 10 4 5 8 6 10 10 11 12 10 8 7 7 8 8 8 7
8 8 10 10 10 11 12 14 15 12 12 14 14 15 14 14 14 15 16 16 13 10 8 10 8 7 9 8 8 7 6 7 7 7 8 8 9 9 10 10 9 8 8 8 9 9 9 9 10 11 11 12 9 10 10 10 9 8 9 8 10 10 10 9 8 7 7 6 5 7 5 8 12 10 8 12 10 11 7 7 8 9 10 9 8
Wind_Direction
234 194 190 178 159 159 136 128 123 118 115 111 104 111 110 110 106 98 94 94 99 97 92 95 99 100 100 103 99 104 105 103 103 103 99 91 88 87 84 81 80 79 79 79 78 77 74 73 72 72 77 79 73 70 72 73 74 75 75 73 72 72 63 55 47 47 46 55 74 70 70 72 71 70 70 73 73 70 67 66 59 59 61 63 64
181 221 179 159 160 151 137 132 127 122 120 118 116 108 112 107 111 114 111 95 95 97 99 105 108 106 107 106 109 109 108 108 104 100 100 96 89 87 84 81 79 79 79 79 78 77 77 76 75 77 81 80 74 72 74 74 75 77 74 73 72 67 63 56 54 52 51 52 50 61 69 67 67 66 69 66 70 72 69 70 64 47 58 71 59
138 172 163 158 155 160 140 137 131 128 127 125 122 115 111 110 113 126 113 107 109 109 106 99 103 111 116 117 117 114 114 112 106 105 98 92 88 87 86 83 80 80 80 80 80 80 79 78 76 78 81 81 76 74 75 76 77 78 77 76 72 69 64 62 61 56 55 55 54 46 57 65 66 68 73 67 63 65 61 59 56 66 72 70 68
139 150 147 154 170 162 140 137 133 131 128 127 126 123 118 124 127 134 132 117 116 111 111 114 116 116 116 110 117 117 113 114 109 103 97 92 91 86 84 82 81 81 81 81 81 80 80 78 77 81 86 85 82 78 78 78 77 79 78 80 74 72 69 67 65 61 54 49 47 42 35 30 62 69 69 64 62 61 58 61 57 54 63 64 63
138 146 150 154 173 155 136 132 132 132 130 127 125 126 132 130 132 139 130 121 113 110 115 120 116 121 120 117 117 115 114 110 106 102 97 96 93 90 86 84 82 81 83 84 85 84 82 81 81 83 87 89 88 84 81 80 80 80 80 78 75 73 73 69 63 57 48 43 39 36 23 24 34 76 74 67 66 66 69 63 55 57 60 63 63
143 146 153 157 164 146 133 133 132 132 129 128 127 122 120 125 133 133 135 117 121 119 122 121 122 121 127 126 117 109 114 118 117 106 104 100 95 92 91 88 85 84 84 87 88 87 85 85 85 87 90 90 91 89 86 84 82 81 81 80 77 75 70 65 60 51 42 35 33 31 28 28 31 61 73 71 69 65 67 65 62 60 60 62 64
146 150 149 148 143 141 138 138 134 133 132 133 130 128 126 130 130 136 129 128 130 131 130 128 129 128 122 118 121 121 122 118 113 112 108 102 97 92 87 86 85 83 84 85 87 86 86 86 87 87 89 91 88 89 89 88 86 85 83 81 79 75 67 59 52 47 41 36 29 32 42 46 38 32 69 68 67 67 67 68 63 64 64 62 57
149 143 136 139 145 145 147 142 142 140 137 135 135 133 141 137 135 131 133 134 135 136 122 123 131 129 126 125 118 119 118 114 105 103 98 94 93 93 88 83 81 82 82 83 85 86 87 87 88 88 89 90 92 92 90 90 91 92 89 84 78 72 64 57 49 43 41 35 23 27 41 59 58 39 72 69 67 65 67 67 65 65 70 73 70
152 135 131 138 147 151 155 148 148 149 141 138 144 142 141 142 141 139 135 133 145 130 134 132 124 131 133 122 111 116 114 111 109 98 93 95 94 93 92 87 83 82 83 85 87 90 90 91 92 92 93 94 94 93 92 94 97 97 94 90 81 70 63 56 49 46 40 32 23 19 21 40 71 48 70 72 70 66 63 49 52 71 65 61 61
142 127 134 140 148 155 154 153 152 153 146 145 146 141 139 144 143 139 142 151 152 139 129 126 133 135 140 135 123 117 112 109 102 98 99 99 98 99 97 93 89 88 89 91 93 96 98 98 97 96 98 98 96 93 95 97 97 98 97 91 83 73 63 57 52 47 47 37 31 23 7 23 26 93 75 69 71 80 81 60 59 75 76 64 58
137 135 140 141 148 151 156 152 147 149 148 147 151 145 150 147 152 142 147 150 161 137 130 135 132 125 135 136 129 120 114 110 104 105 104 104 103 103 100 96 93 90 93 95 101 104 105 104 103 102 100 99 98 97 97 95 94 94 94 88 80 72 65 60 53 42 39 36 33 22 11 14 345 268 76 75 71 82 89 76 62 65 61 66 56
146 136 141 144 155 150 152 141 143 147 149 153 152 146 150 154 153 151 147 144 168 144 141 142 133 130 136 134 125 120 120 117 114 113 112 108 109 107 106 101 96 94 93 98 103 108 109 107 105 102 99 99 98 98 100 98 95 93 92 86 79 70 61 58 57 46 39 32 32 23 18 12 341 55 64 70 69 65 72 69 56 56 56 46 44
132 114 113 141 136 155 146 140 145 148 151 155 141 141 157 168 152 152 145 153 166 149 146 144 138 128 137 137 129 123 121 120 118 117 114 111 110 108 108 103 101 101 100 98 102 107 109 109 106 104 102 100 99 98 97 99 98 96 91 89 82 75 64 59 50 49 37 33 33 25 22 10 3 54 57 56 65 65 53 55 50 42 35 32 27
120 107 76 61 107 118 116 126 140 148 160 154 149 151 167 161 154 163 153 151 165 157 155 131 136 125 134 139 130 127 129 124 120 119 117 117 114 115 109 104 102 100 100 99 99 103 107 105 103 101 97 93 91 93 95 98 101 101 98 93 85 71 60 54 48 43 39 27 27 31 27 14 20 18 45 44 49 55 51 38 33 30 33 23 18
126 111 96 80 46 68 91 110 121 147 125 141 140 150 165 183 159 160 160 158 169 174 157 138 127 135 127 132 133 132 129 126 122 122 121 122 123 118 116 109 108 106 100 95 94 94 101 105 102 98 94 91 91 92 91 92 98 101 101 92 80 67 61 60 56 42 37 29 12 22 19 1 30 25 19 28 26 34 37 33 24 15 18 16 23
129 126 117 110 96 78 82 121 133 138 115 122 136 150 170 191 142 152 152 161 159 162 146 144 143 145 139 139 137 137 134 129 124 121 120 122 123 122 118 115 111 106 99 101 97 95 97 99 95 92 90 90 92 92 89 82 78 83 92 95 86 81 65 69 58 52 32 24 9 14 3 345 19 25 16 13 16 20 22 20 20 20 23 23 24
139 136 131 134 130 126 118 123 150 146 135 125 133 152 174 172 151 152 164 163 165 155 165 161 158 159 147 145 141 139 133 131 126 121 121 123 119 114 114 116 112 111 110 107 103 95 92 91 88 86 87 86 88 88 84 79 75 73 76 90 96 86 82 69 68 43 37 12 360 352 349 342 347 13 18 25 22 17 29 31 23 26 24 26 30
154 151 155 156 152 151 146 149 160 155 150 145 147 165 183 154 149 152 161 162 167 160 174 179 148 135 107 108 133 127 130 124 117 116 116 115 111 115 114 118 124 121 117 102 97 92 88 86 86 86 82 81 79 80 83 78 70 65 70 75 82 90 97 95 76 36 28 25 353 325 348 329 342 17 10 20 27 22 29 28 23 27 27 26 36
161 165 161 158 169 150 146 150 161 163 160 156 159 177 182 173 154 162 170 174 171 156 126 116 118 116 114 102 106 112 116 113 108 109 106 112 118 115 121 128 133 133 114 104 96 90 83 79 79 78 72 73 71 67 78 91 86 78 67 74 75 68 64 55 72 33 7 20 344 353 328 337 350 360 1 11 18 17 25 32 28 28 32 38 41
173 170 167 173 165 152 153 161 165 166 165 166 171 174 192 176 165 163 171 150 140 126 125 123 122 121 115 111 106 103 100 104 110 110 118 120 116 117 120 130 136 138 124 112 98 88 86 77 77 75 70 63 54 53 54 81 79 73 74 72 76 69 56 73 70 31 1 323 341 340 334 339 356 355 354 356 21 11 19 26 30 23 28 36 41
182 191 182 174 160 154 161 156 174 172 170 168 172 172 186 171 168 163 153 154 147 139 128 122 114 117 116 115 110 104 105 107 104 110 111 116 125 124 124 129 144 140 136 127 108 85 79 85 67 73 67 44 34 34 30 60 86 77 67 88 83 62 24 2 5 11 359 299 343 339 331 336 353 352 348 345 4 11 14 16 28 22 28 41 49
180 190 200 183 164 164 163 165 168 179 172 167 171 176 172 162 157 153 155 159 149 137 130 132 126 120 120 117 116 120 119 118 120 116 109 102 124 130 130 129 115 99 122 150 125 81 48 72 59 53 61 39 17 17 356 358 56 89 87 91 63 58 350 173 348 288 299 353 360 320 334 345 349 347 346 337 1 5 5 11 23 26 38 49 58
194 191 193 192 187 166 159 165 175 176 173 170 170 172 167 152 153 154 158 160 153 142 139 132 134 134 133 125 124 127 135 136 135 131 118 94 93 115 135 129 124 114 106 144 7 343 346 10 21 34 32 22 14 2 350 344 343 32 99 80 86 55 3 209 285 7 360 299 319 324 334 342 345 344 340 335 360 358 0 9 19 28 43 53 63
187 193 189 184 193 189 180 167 173 174 170 174 167 168 171 160 152 153 154 154 150 150 145 141 146 148 144 137 133 136 135 134 115 119 119 110 81 56 43 93 120 129 116 57 22 358 356 354 344 356 18 15 1 348 344 338 334 344 15 80 60 51 102 148 166 292 263 232 211 240 329 340 343 339 337 335 353 8 356 30 357 42 43 56 66
186 178 192 196 196 196 183 185 172 173 173 171 173 178 172 162 156 157 157 156 154 149 153 151 156 158 151 145 144 138 130 116 115 112 129 128 131 125 80 69 66 75 73 93 8 321 343 327 333 350 355 342 341 344 357 334 337 339 346 355 351 95 105 190 185 226 272 343 341 343 352 337 334 334 333 338 356 6 349 34 2 41 32 70 69
173 196 199 189 199 193 191 181 181 178 181 174 176 171 163 175 171 165 159 167 164 166 165 164 161 163 161 149 137 133 132 131 142 152 154 155 158 162 163 154 158 141 107 143 230 298 308 323 329 320 315 315 288 275 280 282 303 321 337 348 12 333 340 322 325 309 279 282 281 293 339 327 326 333 333 339 354 360 358 38 25 34 86 95 100
195 207 195 200 195 194 190 183 191 180 184 176 172 175 183 181 175 172 167 181 175 169 178 177 179 170 165 156 149 156 155 158 160 166 176 176 183 185 188 182 192 200 200 209 226 248 295 301 296 286 285 296 290 280 282 278 258 296 321 333 8 353 317 282 233 243 256 237 244 288 322 322 325 333 332 334 2 348 355 352 44 29 340 38 104
187 201 199 200 201 202 188 187 188 187 183 178 179 186 188 180 184 177 186 182 174 184 185 187 181 179 174 175 174 170 170 174 183 178 190 181 197 197 188 185 203 214 204 213 221 232 255 265 273 276 288 289 301 300 304 305 311 259 306 313 338 327 311 297 267 243 233 228 243 299 314 316 325 327 329 328 356 353 346 345 320 144 220 326 133
205 200 194 194 204 198 189 194 193 190 188 177 190 189 186 190 184 186 194 181 188 187 187 185 187 185 180 179 174 174 180 182 186 194 173 197 200 198 193 201 203 211 200 209 218 221 243 245 248 258 269 282 296 294 321 312 321 319 310 310 319 307 286 317 312 286 242 230 237 304 322 330 323 321 333 358 345 337 334 321 314 293 337 257 137
210 200 190 202 190 192 196 196 193 193 188 184 194 190 192 190 194 194 191 183 193 191 184 189 195 181 188 186 191 186 185 186 195 193 186 203 201 198 199 212 213 208 202 215 208 213 231 226 241 249 259 273 291 284 341 316 321 329 302 291 298 283 280 258 234 213 243 238 208 288 328 329 320 317 356 349 335 330 323 309 291 271 228 235 143
203 205 201 199 185 184 200 196 193 191 192 193 195 197 189 199 198 194 190 193 192 189 192 195 193 193 193 188 191 195 191 192 193 193 199 204 204 201 215 207 218 208 207 220 203 218 219 228 231 243 250 268 271 290 324 312 309 312 289 260 272 298 282 294 229 216 217 219 190 215 282 315 326 346 354 329 331 326 318 305 278 249 220 196 154
203 209 201 187 182 193 196 194 191 190 195 200 195 200 198 201 196 192 195 195 190 196 197 196 200 198 194 192 193 195 196 201 195 195 199 201 206 210 215 207 224 212 207 211 205 208 213 230 241 247 263 278 296 308 312 296 301 293 309 270 273 272 270 269 219 215 214 182 192 197 196 222 340 3 1 343 329 328 320 303 298 322 246 158 167
213 205 196 183 193 193 193 195 189 188 196 199 198 202 202 199 196 197 196 192 195 198 202 201 202 202 198 195 197 197 199 199 199 198 198 203 206 209 215 215 222 214 209 215 209 201 211 246 267 251 293 316 319 295 326 283 276 283 295 283 302 280 273 284 225 208 213 206 187 190 196 199 165 125 360 342 338 334 325 313 317 320 194 162 181
208 202 185 200 195 193 193 191 191 192 196 200 197 198 203 202 200 200 195 191 197 199 207 203 203 205 201 201 200 201 200 204 197 201 199 206 211 213 214 219 220 213 207 202 212 200 210 215 250 269 273 292 283 283 308 292 269 267 271 264 271 262 290 287 226 214 202 204 190 180 186 205 195 167 135 345 345 343 332 321 319 300 228 193 188
200 197 201 202 192 194 189 199 191 197 195 199 198 202 199 200 200 201 199 197 197 203 206 205 206 207 202 207 205 203 205 204 203 201 206 207 213 219 218 223 215 199 199 207 212 205 195 221 230 248 288 283 260 266 262 261 270 276 265 262 264 265 282 258 236 211 208 210 205 200 199 198 185 161 152 136 345 340 334 331 343 305 230 226 179
206 205 203 195 199 197 193 198 192 198 198 200 201 201 198 199 200 202 201 198 201 205 207 207 208 206 206 210 206 208 207 207 205 204 212 211 215 220 222 217 213 188 205 208 201 214 203 228 231 190 247 260 250 265 228 249 253 262 264 265 258 255 256 257 247 224 208 181 211 212 194 194 219 180 149 125 229 300 335 331 349 14 352 176 172
206 204 201 197 202 198 195 200 198 197 199 200 202 202 195 199 200 199 202 199 204 209 210 207 208 209 210 210 207 209 212 210 206 206 214 216 218 222 221 212 201 201 200 203 204 214 198 212 231 200 199 239 237 254 265 241 257 256 268 268 262 257 253 246 239 217 177 191 197 195 191 205 198 215 180 171 179 218 334 339 6 33 24 29 183
209 208 204 201 204 198 199 201 201 198 197 198 200 200 201 200 201 202 201 204 208 210 209 202 209 212 208 211 208 209 213 211 209 207 211 217 216 216 219 208 199 200 204 192 217 203 208 204 234 216 203 212 239 241 256 255 243 262 273 267 271 260 255 249 235 194 183 199 197 200 205 192 201 209 242 184 176 171 181 339 1 34 39 41 40
210 208 208 209 207 205 201 203 201 195 197 197 199 202 202 205 204 202 206 211 213 213 207 208 212 211 211 210 209 210 210 212 210 206 209 211 213 211 215 211 198 200 198 204 212 206 210 208 221 242 217 218 226 233 240 250 260 263 271 271 275 268 269 256 230 200 201 209 204 199 163 193 194 188 215 283 184 154 165 189 287 357 52 59 68
211 207 209 207 209 207 205 205 204 198 194 195 190 199 199 201 205 207 216 215 214 213 212 214 209 214 212 209 210 210 209 210 211 209 208 207 208 209 212 206 199 192 202 208 217 212 212 213 227 228 242 248 234 243 244 252 280 279 273 278 260 264 267 250 232 224 210 207 211 175 192 175 186 194 200 194 213 180 183 202 178 204 220 96 80
212 206 207 210 208 207 198 209 202 195 192 193 195 193 197 202 213 212 215 208 212 213 217 217 215 217 213 211 210 212 210 211 211 205 207 203 208 204 206 211 196 196 204 218 216 217 211 209 220 208 226 247 253 213 235 178 282 288 268 271 288 251 254 252 237 228 213 210 186 181 177 173 187 197 202 175 188 200 208 204 205 204 193 126 111
215 205 208 208 208 206 205 209 195 198 201 199 196 196 200 201 199 209 207 208 208 210 222 218 219 220 217 214 214 212 212 211 205 205 202 199 204 207 205 208 198 205 214 219 223 217 212 214 206 239 206 224 248 192 204 126 232 241 288 311 312 297 265 230 250 247 217 201 188 182 187 193 190 193 175 187 198 204 206 202 198 193 188 195 204
214 210 213 209 211 208 211 205 202 200 205 200 193 204 204 205 200 198 196 213 217 214 220 219 210 216 216 214 214 214 212 213 204 199 202 203 208 204 210 205 205 203 211 222 218 222 213 215 205 219 235 223 235 211 186 184 229 130 175 346 278 321 327 324 287 250 214 206 182 191 186 204 206 185 181 186 208 223 228 211 202 194 191 205 213
214 215 210 211 210 213 210 207 208 203 201 202 205 208 203 198 204 195 201 202 203 211 222 225 217 213 221 213 217 213 208 210 199 195 202 206 203 210 206 204 211 202 211 220 216 225 213 217 210 218 212 249 211 242 192 193 188 139 290 226 259 219 301 257 277 288 230 203 186 197 182 191 178 170 171 203 211 214 219 217 207 196 197 203 207
211 211 206 206 208 209 207 205 206 203 202 200 203 197 176 175 183 154 113 231 277 212 209 232 218 215 223 217 220 203 209 210 199 199 197 205 205 207 208 212 210 208 207 219 222 222 215 211 206 210 204 222 247 231 230 191 205 201 195 211 301 279 228 256 82 270 185 179 226 201 198 181 179 182 191 213 212 210 204 206 211 204 204 205 207
214 213 205 208 207 209 205 205 205 203 203 201 196 186 190 185 173 189 207 212 221 210 219 220 202 211 219 208 204 199 203 206 203 202 202 201 208 208 210 211 214 211 208 218 225 221 212 206 206 207 214 210 229 241 241 216 213 210 221 225 215 244 252 223 76 290 331 225 147 195 193 207 198 194 198 204 207 213 206 210 198 209 208 208 204
219 206 205 209 208 209 204 203 204 204 201 197 186 186 192 194 197 203 208 207 217 228 223 207 206 213 203 205 206 193 199 204 208 205 205 205 207 209 210 213 214 215 210 215 223 220 219 215 201 202 212 204 199 234 237 226 204 240 228 236 249 248 224 216 255 338 296 12 112 161 218 215 210 222 215 215 210 206 205 201 203 208 211 207 200
214 197 206 205 206 207 203 203 203 203 199 191 186 188 194 198 202 208 211 215 216 229 199 211 204 192 197 207 197 200 197 202 205 205 208 206 206 211 210 213 215 217 210 217 222 220 218 214 201 207 207 202 203 223 236 220 215 229 197 228 237 245 239 233 243 244 265 277 227 296 210 197 210 222 224 226 216 209 205 201 206 208 211 208 204
205 201 206 207 206 206 205 203 204 201 198 189 189 192 198 197 200 202 212 222 222 228 190 196 203 193 208 199 200 200 198 200 202 203 205 208 205 210 210 216 217 219 213 222 222 215 212 208 204 205 208 212 209 217 226 230 212 231 184 225 228 234 233 231 235 221 245 260 263 200 212 336 267 258 244 239 239 226 210 204 204 207 204 207 202
211 211 211 207 208 205 205 203 207 200 197 192 191 195 197 195 199 204 211 220 216 217 187 206 205 192 212 204 199 197 199 199 202 204 206 207 208 206 212 217 219 220 215 220 219 216 213 212 211 210 212 217 214 214 222 229 224 226 216 220 213 230 240 243 224 225 236 228 253 229 200 187 210 240 220 230 231 228 213 196 202 207 208 205 201
210 203 208 208 206 203 203 204 209 202 196 195 191 195 195 196 203 205 210 218 212 205 205 219 208 197 212 204 199 201 191 201 192 206 206 203 208 206 212 217 218 218 217 216 219 217 216 217 219 218 218 218 219 220 224 231 230 229 225 221 227 219 220 220 214 203 219 232 237 253 230 204 215 245 229 219 226 227 210 193 207 211 209 204 200